This is the latest recevied weather packets stored in our database for station/object OK2ZAW-19. If no packets are shown the sender has not sent any weather packets the latest 10 day(s).
| Time | Temp. | Humidity | Pressure | Rain* | Wind** | Luminosity | Snow |
|---|---|---|---|---|---|---|---|
| 1777725792 | 22.22° C | 32% | 1023.4 hPa | - | - | 337 W/m² | - |
| 1777725480 | 21.67° C | 31% | 1023.5 hPa | - | - | 338 W/m² | - |
| 1777724857 | 21.67° C | 34% | 1023.5 hPa | - | - | 337 W/m² | - |
| 1777724545 | 21.11° C | 34% | 1023.6 hPa | - | - | 337 W/m² | - |
| 1777724234 | 21.11° C | 34% | 1023.7 hPa | - | - | 337 W/m² | - |
| 1777723922 | 21.11° C | 34% | 1023.8 hPa | - | - | 337 W/m² | - |
| 1777723610 | 21.11° C | 34% | 1023.8 hPa | - | - | 337 W/m² | - |
| 1777723299 | 20.56° C | 34% | 1023.9 hPa | - | - | 337 W/m² | - |
| 1777722987 | 20.56° C | 34% | 1023.9 hPa | - | - | 337 W/m² | - |
| 1777722676 | 20.56° C | 34% | 1024 hPa | - | - | 337 W/m² | - |
| 1777722364 | 21.11° C | 34% | 1023.9 hPa | - | - | 337 W/m² | - |
| 1777722053 | 21.11° C | 34% | 1024.1 hPa | - | - | 337 W/m² | - |
| 1777721741 | 21.11° C | 34% | 1024.1 hPa | - | - | 337 W/m² | - |
| 1777721429 | 21.11° C | 34% | 1024.2 hPa | - | - | 338 W/m² | - |
| 1777721118 | 21.11° C | 35% | 1024.2 hPa | - | - | 337 W/m² | - |
| 1777720806 | 21.11° C | 36% | 1024.3 hPa | - | - | 337 W/m² | - |
| 1777719872 | 20° C | 35% | 1024.5 hPa | - | - | 337 W/m² | - |
| 1777719249 | 20.56° C | 36% | 1024.6 hPa | - | - | 337 W/m² | - |
| 1777718937 | 20.56° C | 37% | 1024.7 hPa | - | - | 337 W/m² | - |
| 1777718625 | 20° C | 38% | 1024.7 hPa | - | - | 337 W/m² | - |
| 1777718314 | 20° C | 36% | 1024.8 hPa | - | - | 337 W/m² | - |
| 1777718003 | 20° C | 37% | 1024.8 hPa | - | - | 336 W/m² | - |
| 1777717691 | 20° C | 39% | 1024.8 hPa | - | - | 337 W/m² | - |
| 1777717380 | 19.44° C | 42% | 1024.9 hPa | - | - | 337 W/m² | - |
| 1777717068 | 18.89° C | 43% | 1025 hPa | - | - | 337 W/m² | - |
* Rain since midnight (hover to see other rain measurements)
** Current wind speed in m/s (hover to see current wind gust speed)